Flag Weather past 2 weeks in Rancho Cucamonga, California, U.S.A.

Now
74 °F

Sunny.


Feels Like: 74 °F
Forecast: 55 / 85 °F
Wind: No wind

Location: Ontario International Airport

Current Time: Nov 26, 2014 at 11:02:14 AM

Latest Report: Nov 26, 2014 at 9:53 AM


Visibility: 10 mi

Pressure: 30.23 "Hg

Humidity: 11%

Dew point: 17 °F

Location of Rancho CucamongaLocation

Historic Weather in Rancho Cucamonga — Graph

°F

Rancho Cucamonga temperature yesterday

Maximum temperature yesterday: 78 °F (at 1:53 PM)
Minimum temperature yesterday: 47 °F (at 2:53 AM)
Average temperature yesterday: 62 °F

Past Weeks' High & Low Weather Summary

 TemperatureHumidityPressure
High79 °F (Nov 23, 12:53 PM)93% (Nov 23, 3:53 AM)30.39 "Hg (Nov 23, 3:53 AM)
Low46 °F (Nov 18, 1:53 AM)2% (Nov 16, 1:53 PM)29.88 "Hg (Nov 11, 4:53 PM)
Average62 °F48%30.07 "Hg
* Reported Nov 11 9:53 AM — Nov 26 9:53 AM, Rancho Cucamonga, Weather by CustomWeather, © 2014

Note: Actual official high and low records may vary slightly from our data, if they occured in-between our weather recording intervals... More about our weather records

Advertising

Rancho Cucamonga weather history for previous 24 hours

 ConditionsComfort  
Time TempWeatherWind HumidityBarometerVisibility
9:53 AM
Nov 26
74 °FSunny.No wind11%30.23 "Hg10 mi
8:53 AM68 °FSunny.6 mph19%30.24 "Hg10 mi
7:53 AM62 °FSunny.3 mph24%30.23 "Hg10 mi
6:53 AM55 °FSunny.3 mph30%30.23 "Hg10 mi
5:53 AM51 °FClear.3 mph38%30.22 "Hg10 mi
4:53 AM54 °FClear.3 mph31%30.21 "Hg10 mi
3:53 AM53 °FClear.3 mph34%30.22 "Hg10 mi
2:53 AM51 °FClear.No wind38%30.23 "Hg10 mi
1:53 AM54 °FClear.No wind33%30.24 "Hg10 mi
12:53 AM55 °FClear.3 mph30%30.24 "Hg10 mi
11:53 PM
Nov 25
56 °FClear.5 mph32%30.26 "Hg10 mi
10:53 PM58 °FClear.3 mph27%30.27 "Hg10 mi
9:53 PM60 °FClear.5 mph23%30.28 "Hg10 mi
8:53 PM61 °FClear.3 mph22%30.28 "Hg10 mi
7:53 PM62 °FClear.3 mph22%30.28 "Hg10 mi
6:53 PM65 °FClear.5 mph19%30.28 "Hg10 mi
5:53 PM70 °FClear.3 mph12%30.27 "Hg10 mi
4:53 PM72 °FClear.No wind9%30.25 "Hg10 mi
3:53 PM77 °FSunny.5 mph6%30.24 "Hg10 mi
2:53 PM78 °FSunny.5 mph7%30.25 "Hg10 mi
1:53 PM78 °FSunny.6 mph7%30.25 "Hg10 mi
12:53 PM76 °FSunny.3 mph7%30.28 "Hg10 mi
11:53 AM74 °FSunny.5 mph9%30.31 "Hg10 mi
Weather by CustomWeather, © 2014

See weather overviewHow to use our weather pages